Hourly Data Report for September 19, 2017

All times are specified in Local Standard Time (LST). Add 1 hour to adjust for Daylight Saving Time where and when it is observed.

ENNADAI LAKE (AUT)
NUNAVUT

61°07'55.000" N
100°53'02.000" W
353.10 m
2301102
71923
WJC

Download Data

Hourly Data (September 2017)
Hourly Data Report for September 19, 2017
Temp Definition
°C
Dew Point Temp Definition
°C
Rel Hum Definition
%
Wind Dir Definition
10's deg

Wind Spd Definition
km/h
Visibility Definition
km
Stn Press Definition
kPa
Hmdx Definition


Wind Chill Definition


Weather Definition


TIME
00:00 6.4 3.6 82 16 16   97.03     LegendNANA
01:00 6.1 3.4 83 16 7   97.05     LegendNANA
02:00 6.6 3.6 81 20 8   97.07     LegendNANA
03:00 5.0 3.6 90 16 8   97.08     LegendNANA
04:00 5.7 3.9 88 19 7   97.10     LegendNANA
05:00 6.4 4.0 85 21 5   97.11     LegendNANA
06:00 4.4 3.7 95 13 9   97.13     LegendNANA
07:00 4.1 3.5 97 13 13   97.15     LegendNANA
08:00 5.5 4.6 94 13 14   97.17     LegendNANA
09:00 6.8 5.7 93 14 13   97.22     LegendNANA
10:00 7.0 4.6 85 14 18   97.25     LegendNANA
11:00 8.2 5.5 83 14 22   97.27     LegendNANA
12:00 9.1 5.7 79 15 20   97.29     LegendNANA
13:00 10.9 5.4 69 15 20   97.29     LegendNANA
14:00 12.3 4.1 57 13 15   97.27     LegendNANA
15:00 12.8 3.8 54 15 12   97.27     LegendNANA
16:00 12.5 3.5 54 12 14   97.28     LegendNANA
17:00 11.7 3.9 59 12 17   97.27     LegendNANA
18:00 9.8 4.1 68 13 18   97.33     LegendNANA
19:00 7.2 3.3 77 12 18   97.38     LegendNANA
20:00 6.2 2.8 79 11 20   97.36     LegendNANA
21:00 4.6 1.9 83 11 17   97.41     LegendNANA
22:00 3.5 1.6 87 12 16   97.41     LegendNANA
23:00 2.8 1.5 91 13 18   97.44     LegendNANA

Notes on Data Quality.

Legend

  • E = Estimated
  • M = Missing
  • NA = Not Available
  • ‡ = Partner data that is not subject to review by the National Climate Archives
Date modified: